Flag for Germany Weather past 2 weeks in Berlin, Berlin, Germany

Now
70 °F

Mild.


Feels Like: 70 °F
Forecast: 55 / 66 °F
Wind: 7 mph from Southwest

Location: Berlin-Tempelhof

Current Time: Jul 28, 2015 at 6:03:00 PM

Latest Report: Jul 28, 2015 at 5:00 PM


Visibility: N/A

Pressure: 29.65 "Hg

Humidity: 48%

Dew point: 49 °F

Location of BerlinLocation

Historic Weather in Berlin — Graph

°F

Berlin temperature yesterday

Maximum temperature yesterday: 71 °F (at 5:00 PM)
Minimum temperature yesterday: 58 °F (at 5:00 AM)
Average temperature yesterday: 63 °F

Past Weeks' High & Low Weather Summary

 TemperatureHumidityPressure
High90 °F (Jul 17, 7:00 PM)98% (Jul 19, 1:00 PM)30.11 "Hg (Jul 19, 1:00 PM)
Low56 °F (Jul 26, 2:00 AM)31% (Jul 25, 5:00 PM)29.55 "Hg (Jul 25, 9:00 AM)
Average69 °F66%29.88 "Hg
* Reported Jul 13 5:00 PM — Jul 28 5:00 PM, Berlin, Weather by CustomWeather, © 2015

Note: Actual official high and low records may vary slightly from our data, if they occured in-between our weather recording intervals... More about our weather records

Advertising

Berlin weather history for previous 24 hours

 ConditionsComfort  
Time TempWeatherWind HumidityBarometerVisibility
5:00 PM
Tue, Jul 28
70 °FMild.7 mph48%29.65 "HgN/A
4:00 PM69 °FMild.8 mph49%29.65 "HgN/A
3:00 PM66 °FMild.6 mph56%29.66 "HgN/A
2:00 PM66 °FMild.8 mph58%29.65 "HgN/A
1:00 PM63 °FMild.6 mph68%29.65 "HgN/A
12:00 PM67 °FMild.7 mph58%29.64 "HgN/A
11:00 AM66 °FMild.8 mph59%29.63 "HgN/A
10:00 AM65 °FMild.6 mph67%29.62 "HgN/A
9:00 AM63 °FMild.6 mph74%29.61 "HgN/A
8:00 AM62 °FCool.7 mph79%29.61 "HgN/A
7:00 AM60 °FCool.5 mph89%29.61 "HgN/A
6:00 AM59 °FCool.5 mph89%29.60 "HgN/A
5:00 AM59 °FCool.3 mph90%29.60 "HgN/A
4:00 AM60 °FCool.5 mph90%29.60 "HgN/A
3:00 AM60 °FCool.5 mph91%29.60 "HgN/A
2:00 AM59 °FCool.5 mph92%29.61 "HgN/A
1:00 AM60 °FCool.5 mph89%29.61 "HgN/A
11:00 PM
Mon, Jul 27
61 °FCool.5 mph94%29.61 "HgN/A
10:00 PM62 °FCool.3 mph92%29.60 "HgN/A
9:00 PM62 °FCool.5 mph92%29.60 "HgN/A
8:00 PM64 °FMild.5 mph76%29.60 "HgN/A
7:00 PM64 °FMild.6 mph76%29.58 "HgN/A
6:00 PM70 °FMild.7 mph62%29.56 "HgN/A
Weather by CustomWeather, © 2015

See weather overviewHow to use our weather pages